Change the Weather History Date:

Saturday, January 25, 2014

  Actual Average Record
Temperature  
Mean Temperature -6 °F -  
Max Temperature 0 °F 15 °F 32 °F (2008)
Min Temperature -11 °F 0 °F -20 °F (2009)
Degree Days  
Heating Degree Days 70    
Moisture  
Dew Point -19 °F    
Average Humidity 59    
Maximum Humidity 70    
Minimum Humidity 45    
Precipitation  
Precipitation 0.00 in - - ()
Sea Level Pressure  
Sea Level Pressure 29.47 in    
Wind  
Wind Speed 13 mph (WNW)    
Max Wind Speed 21 mph    
Max Gust Speed 33 mph    
Visibility 7 miles    
Events Snow    
Averages and records for this station are not official NWS values.
T = Trace of Precipitation, MM = Missing Value Source: NWS Daily Summary

Daily Weather History Graph

Daily Weather History Graph

Search for Another Location

Airport or City:

Trip Planner

Search our weather history database for the weather conditions in past years. The results will help you decide how hot, cold, wet, or windy it might be!

Date:

Astronomy

Jan. 25, 2014 Rise Set
Actual Time 7:37 AM CST 4:51 PM CST
Civil Twilight 7:03 AM CST 5:25 PM CST
Nautical Twilight 6:25 AM CST 6:02 PM CST
Astronomical Twilight 5:48 AM CST 6:39 PM CST
Moon 2:07 AM CST (1/25) 11:52 AM CST (1/25)
Length of Visible Light 10h 22m
Length of Day
9h 14m
Waning Crescent, 34% of the Moon is Illuminated
Jan 25
Waning Crescent
Jan 30
New
Feb 6
First Quarter
Feb 14
Full
Feb 22
Last Quarter

Hourly Weather History & Observations

Time (CST) Temp. Windchill Dew Point Humidity Pressure Visibility Wind Dir Wind Speed Gust Speed Precip Events Conditions
12:13 AM -0.4 °F -21.7 °F -11.2 °F 60% 29.28 in 5.0 mi NW 18.4 mph 29.9 mph N/A   Haze
12:33 AM -0.4 °F -19.9 °F -11.2 °F 60% 29.29 in 7.0 mi NW 15.0 mph 24.2 mph N/A   Scattered Clouds
12:53 AM -2.2 °F -22.9 °F -11.2 °F 66% 29.30 in 7.0 mi NW 16.1 mph 23.0 mph N/A   Scattered Clouds
1:14 AM -2.2 °F -25.2 °F -11.2 °F 66% 29.31 in 2.5 mi NW 20.7 mph 33.4 mph N/A Snow Light Snow
1:33 AM -2.2 °F -22.9 °F -14.8 °F 55% 29.32 in 4.0 mi NW 16.1 mph 29.9 mph N/A Snow Light Snow
1:54 AM -4.0 °F -24.5 °F -14.8 °F 60% 29.33 in 5.0 mi NW 15.0 mph 29.9 mph N/A   Haze
2:14 AM -5.8 °F -25.2 °F -14.8 °F 65% 29.35 in 10.0 mi NW 12.7 mph 21.9 mph N/A   Scattered Clouds
2:33 AM -5.8 °F -27.5 °F -14.8 °F 65% 29.36 in 7.0 mi WNW 16.1 mph 24.2 mph N/A   Scattered Clouds
2:53 AM -5.8 °F -28.8 °F -14.8 °F 65% 29.37 in 2.0 mi WNW 18.4 mph 28.8 mph N/A Snow Light Snow
3:13 AM -5.8 °F -27.5 °F -16.6 °F 60% 29.37 in 4.0 mi WNW 16.1 mph 28.8 mph N/A   Haze
3:34 AM -5.8 °F -22.4 °F -14.8 °F 65% 29.39 in 4.0 mi WNW 9.2 mph 19.6 mph N/A   Haze
3:53 AM -5.8 °F -22.4 °F -14.8 °F 65% 29.39 in 3.0 mi WNW 9.2 mph 27.6 mph N/A   Haze
4:13 AM -5.8 °F -26.8 °F -16.6 °F 60% 29.40 in 7.0 mi WNW 15.0 mph 25.3 mph N/A   Overcast
4:34 AM -7.6 °F -28.3 °F -16.6 °F 65% 29.40 in 7.0 mi NW 13.8 mph 25.3 mph N/A   Scattered Clouds
4:53 AM -7.6 °F -29.1 °F -16.6 °F 65% 29.40 in 3.0 mi NW 15.0 mph 25.3 mph N/A Snow Light Snow
5:13 AM -7.6 °F -29.8 °F -16.6 °F 65% 29.41 in 2.5 mi NW 16.1 mph 27.6 mph N/A   Haze
5:34 AM -7.6 °F -29.1 °F -18.4 °F 59% 29.43 in 7.0 mi WNW 15.0 mph 26.5 mph N/A   Scattered Clouds
5:54 AM -7.6 °F -31.7 °F -18.4 °F 59% 29.43 in 5.0 mi WNW 19.6 mph 28.8 mph N/A   Haze
6:13 AM -7.6 °F -27.5 °F -18.4 °F 59% 29.44 in 7.0 mi NW 12.7 mph 24.2 mph N/A   Scattered Clouds
6:33 AM -9.4 °F -27.9 °F -18.4 °F 65% 29.45 in 2.5 mi NW 10.4 mph 23.0 mph N/A   Haze
6:54 AM -9.4 °F -27.9 °F -18.4 °F 65% 29.46 in 3.0 mi NW 10.4 mph 20.7 mph N/A   Haze
7:13 AM -9.4 °F -26.8 °F -18.4 °F 65% 29.47 in 3.0 mi NW 9.2 mph - N/A   Haze
7:33 AM -9.4 °F -20.9 °F -18.4 °F 65% 29.48 in 1.2 mi WNW 4.6 mph - N/A Snow Light Snow
7:54 AM -9.4 °F -33.5 °F -20.2 °F 59% 29.49 in 4.0 mi NW 18.4 mph 23.0 mph N/A   Haze
8:13 AM -11.2 °F -35.8 °F -22.0 °F 59% 29.50 in 5.0 mi NW 18.4 mph 27.6 mph N/A   Haze
8:33 AM -9.4 °F -30.6 °F -22.0 °F 54% 29.51 in 7.0 mi NW 13.8 mph 23.0 mph N/A   Clear
8:54 AM -9.4 °F -28.9 °F -23.8 °F 49% 29.51 in 7.0 mi WNW 11.5 mph 24.2 mph N/A   Clear
9:13 AM -9.4 °F -29.8 °F -22.0 °F 54% 29.52 in 4.0 mi WNW 12.7 mph 27.6 mph N/A   Haze
9:33 AM -9.4 °F -29.8 °F -23.8 °F 49% 29.52 in 5.0 mi NW 12.7 mph 26.5 mph N/A   Haze
9:54 AM -9.4 °F -30.6 °F -22.0 °F 54% 29.53 in 4.0 mi NW 13.8 mph 23.0 mph N/A   Haze
10:14 AM -9.4 °F -28.9 °F -23.8 °F 49% 29.53 in 7.0 mi WNW 11.5 mph 26.5 mph N/A   Scattered Clouds
10:33 AM -9.4 °F -32.1 °F -23.8 °F 49% 29.54 in 5.0 mi WNW 16.1 mph 25.3 mph N/A   Haze
10:54 AM -9.4 °F -30.6 °F -20.2 °F 59% 29.53 in 2.5 mi WNW 13.8 mph 21.9 mph N/A   Haze
11:14 AM -9.4 °F -31.4 °F -23.8 °F 49% 29.54 in 2.0 mi WNW 15.0 mph 29.9 mph N/A   Haze
11:33 AM -9.4 °F -30.6 °F -23.8 °F 49% 29.54 in 4.0 mi WNW 13.8 mph 24.2 mph N/A   Haze
11:53 AM -7.6 °F -27.5 °F -23.8 °F 45% 29.53 in 7.0 mi WNW 12.7 mph 21.9 mph N/A   Scattered Clouds
12:14 PM -7.6 °F -27.5 °F -23.8 °F 45% 29.52 in 10.0 mi WNW 12.7 mph 23.0 mph N/A   Scattered Clouds
12:33 PM -7.6 °F -24.6 °F -20.2 °F 54% 29.52 in 3.0 mi WNW 9.2 mph 24.2 mph N/A   Haze
12:53 PM -7.6 °F -24.6 °F -22.0 °F 50% 29.52 in 7.0 mi WNW 9.2 mph 24.2 mph N/A   Clear
1:14 PM -5.8 °F -23.4 °F -20.2 °F 50% 29.52 in 10.0 mi NW 10.4 mph 25.3 mph N/A   Clear
1:33 PM -5.8 °F -26.0 °F -20.2 °F 50% 29.52 in 10.0 mi West 13.8 mph 21.9 mph N/A   Scattered Clouds
1:53 PM -5.8 °F -23.4 °F -20.2 °F 50% 29.52 in 7.0 mi WNW 10.4 mph 25.3 mph N/A   Clear
2:14 PM -5.8 °F -24.4 °F -20.2 °F 50% 29.52 in 10.0 mi West 11.5 mph 21.9 mph N/A   Clear
2:33 PM -5.8 °F -24.4 °F -20.2 °F 50% 29.52 in 10.0 mi NW 11.5 mph 18.4 mph N/A   Clear
2:53 PM -5.8 °F -26.8 °F -18.4 °F 55% 29.52 in 10.0 mi WNW 15.0 mph 24.2 mph N/A   Clear
3:14 PM -5.8 °F -23.4 °F -18.4 °F 55% 29.52 in 10.0 mi WNW 10.4 mph 19.6 mph N/A   Clear
3:33 PM -5.8 °F -25.2 °F -18.4 °F 55% 29.52 in 10.0 mi West 12.7 mph 18.4 mph N/A   Clear
3:53 PM -5.8 °F -24.4 °F -18.4 °F 55% 29.52 in 10.0 mi West 11.5 mph 19.6 mph N/A   Clear
4:14 PM -7.6 °F -25.7 °F -18.4 °F 59% 29.53 in 10.0 mi West 10.4 mph 18.4 mph N/A   Clear
4:33 PM -7.6 °F -27.5 °F -18.4 °F 59% 29.53 in 10.0 mi West 12.7 mph 18.4 mph N/A   Clear
4:53 PM -7.6 °F -23.4 °F -18.4 °F 59% 29.53 in 10.0 mi WNW 8.1 mph 18.4 mph N/A   Clear
5:14 PM -9.4 °F -24.3 °F -18.4 °F 65% 29.54 in 10.0 mi West 6.9 mph - N/A   Scattered Clouds
5:33 PM -9.4 °F -24.3 °F -18.4 °F 65% 29.54 in 10.0 mi West 6.9 mph - N/A   Scattered Clouds
5:53 PM -9.4 °F -25.6 °F -18.4 °F 65% 29.54 in 10.0 mi West 8.1 mph - N/A   Scattered Clouds
6:14 PM -11.2 °F -26.4 °F -18.4 °F 70% 29.54 in 10.0 mi West 6.9 mph - N/A   Scattered Clouds
6:33 PM -11.2 °F -24.8 °F -18.4 °F 70% 29.53 in 10.0 mi West 5.8 mph - N/A   Clear
6:53 PM -11.2 °F -23.0 °F -18.4 °F 70% 29.53 in 10.0 mi West 4.6 mph - N/A   Scattered Clouds
7:14 PM -11.2 °F -23.0 °F -18.4 °F 70% 29.54 in 10.0 mi West 4.6 mph - N/A   Scattered Clouds
7:34 PM -11.2 °F -27.8 °F -18.4 °F 70% 29.52 in 10.0 mi WNW 8.1 mph - N/A   Scattered Clouds
7:53 PM -11.2 °F -26.4 °F -20.2 °F 64% 29.51 in 10.0 mi WNW 6.9 mph - N/A   Scattered Clouds
8:13 PM -11.2 °F -23.0 °F -20.2 °F 64% 29.52 in 10.0 mi West 4.6 mph - N/A   Clear
8:34 PM -11.2 °F -20.6 °F -20.2 °F 64% 29.52 in 10.0 mi West 3.5 mph - N/A   Scattered Clouds
8:54 PM -11.2 °F -24.8 °F -20.2 °F 64% 29.51 in 10.0 mi West 5.8 mph - N/A   Clear
9:13 PM -11.2 °F -27.8 °F -20.2 °F 64% 29.51 in 10.0 mi WNW 8.1 mph - N/A   Clear
9:34 PM -11.2 °F -26.4 °F -20.2 °F 64% 29.50 in 10.0 mi WNW 6.9 mph - N/A   Clear
9:54 PM -9.4 °F -24.3 °F -20.2 °F 59% 29.48 in 10.0 mi WNW 6.9 mph - N/A   Clear
10:13 PM -9.4 °F -26.8 °F -20.2 °F 59% 29.47 in 10.0 mi NW 9.2 mph - N/A   Clear
10:34 PM -9.4 °F - -20.2 °F 59% 29.47 in 10.0 mi Calm Calm - N/A   Scattered Clouds
10:54 PM -9.4 °F -20.9 °F -20.2 °F 59% 29.47 in 10.0 mi WNW 4.6 mph - N/A   Overcast
11:11 PM -9.4 °F - -20.2 °F 59% 29.46 in 10.0 mi Calm Calm - N/A   Mostly Cloudy
11:33 PM -9.4 °F -20.9 °F -18.4 °F 65% 29.45 in 10.0 mi NW 4.6 mph - N/A   Mostly Cloudy
11:54 PM -9.4 °F -24.3 °F -18.4 °F 65% 29.44 in 10.0 mi NNW 6.9 mph - N/A   Mostly Cloudy